sat.trackr.live / text

‹ back to catalog

SELENE

NORAD 69020 · 2026-100AS

PAYLOAD ACTIVE UNKNOWN

§ Identity

Operator
Country
GREC
Launch date
2026-05-03
Launch site
AFWTR
Launch vehicle
Mass (kg)
RCS (m²)

External: N2YO · Heavens-Above · Gunter

§ Orbital elements

Epoch: 2026-09-20T03:37:26.889888Z

Period
94.69 min
Inclination
97.3903°
Eccentricity
0.0004809
Mean motion
15.20740891 rev/d
Perigee alt
500.3 km
Apogee alt
506.9 km
Semi-major
6,881.7 km
B*
1.5254e-4
RAAN
159.1328°
Arg perigee
32.7672°
Mean anomaly
327.3861°
Rev number
2,123

§ Raw data

SELENE1 69020U 26100AS  26263.15100567  .00003289  00000+0  15254-3 0  99912 69020  97.3903 159.1328 0004809  32.7672 327.3861 15.20740891 21232

JSON: /api/v1/satellites/69020 · /tle

For live sub-satellite position, see the globe view (requires WebGL).

§ Visibility from observer

Set your observer location to see the next 7 days of passes ≥ 10°. The values pass through the URL so the page stays shareable.

No JS? Fill the form by hand. The geolocation button needs JavaScript.

§ Radio — SatNOGS DB

ModeDescriptionDownlinkUplink
FSK S Band 2.255 GHz

1 transmitter · refreshed weekly from db.satnogs.org